Springfield, IL

3:50 PM CDT on March 30, 2017 (GMT -0500)
Capital

Weather History for KSPI - December, 2012

Change the Weather History Date:

Thursday, December 13, 2012

  Actual Average Record
Temperature  
Mean Temperature 42 °F 31 °F  
Max Temperature 50 °F 39 °F 67 °F (1948)
Min Temperature 33 °F 23 °F -7 °F (1903)
Degree Days  
Heating Degree Days 23 34  
Month to date heating degree days 246 417  
Since 1 July heating degree days 1307 1485  
Cooling Degree Days 0 0  
Month to date cooling degree days 1 0  
Year to date cooling degree days 1535 1122  
Moisture  
Dew Point 28 °F    
Average Humidity 62    
Maximum Humidity 75    
Minimum Humidity 49    
Precipitation  
Precipitation 0.00 in 0.09 in 3.33 in (1881)
Month to date precipitation 1.30 1.20  
Year to date precipitation 28.08 36.11  
Snow  
Snow 0.00 in 0.10 in 5.40 in (2000)
Month to date snowfall T 1.8  
Since 1 July snowfall T 2.4  
Snow Depth 0.00 in    
Sea Level Pressure  
Sea Level Pressure 30.25 in    
Wind  
Wind Speed 13 mph (South)    
Max Wind Speed 23 mph    
Max Gust Speed 29 mph    
Visibility 10 miles    
Events Snow    
T = Trace of Precipitation, MM = Missing Value Source: NWS Daily Summary

Daily Weather History Graph

Daily Weather History Graph

Search for Another Location

Airport or City:

Trip Planner

Search our weather history database for the weather conditions in past years. The results will help you decide how hot, cold, wet, or windy it might be!

Date:

Astronomy

Dec. 13, 2012 Rise Set
Actual Time 7:11 AM CST 4:34 PM CST
Civil Twilight 6:41 AM CST 5:04 PM CST
Nautical Twilight 6:07 AM CST 5:38 PM CST
Astronomical Twilight 5:34 AM CST 6:11 PM CST
Moon 7:20 AM CST (12/13) 5:16 PM CST (12/13)
Length of Visible Light 10h 23m
Length of Day
9h 22m
New Moon, 0% of the Moon is Illuminated
Dec 13
New Moon
Dec 19
First Quarter
Dec 28
Full
Jan 4
Last Quarter
Jan 11
New

Hourly Weather History & Observations

Time (CST) Temp. Windchill Dew Point Humidity Pressure Visibility Wind Dir Wind Speed Gust Speed Precip Events Conditions
12:52 AM 35.1 °F 27.9 °F 26.1 °F 70% 30.30 in 9.0 mi South 9.2 mph - 0.00 in Snow Light Snow
1:52 AM 36.0 °F 28.5 °F 26.1 °F 67% 30.31 in 9.0 mi South 10.4 mph - 0.00 in Snow Light Snow
2:52 AM 36.0 °F 28.5 °F 26.1 °F 67% 30.31 in 9.0 mi South 10.4 mph - 0.00 in Snow Light Snow
3:52 AM 35.1 °F 27.4 °F 26.1 °F 70% 30.31 in 9.0 mi South 10.4 mph - 0.00 in Snow Light Snow
4:52 AM 34.0 °F 26.6 °F 26.1 °F 73% 30.31 in 9.0 mi South 9.2 mph - 0.00 in Snow Light Snow
5:52 AM 34.0 °F 26.6 °F 26.1 °F 73% 30.32 in 9.0 mi South 9.2 mph - 0.00 in Snow Light Snow
6:52 AM 34.0 °F 26.0 °F 25.0 °F 70% 30.32 in 10.0 mi South 10.4 mph - N/A   Clear
7:52 AM 37.0 °F 28.9 °F 25.0 °F 62% 30.30 in 10.0 mi South 12.7 mph - N/A   Clear
8:52 AM 39.9 °F 30.8 °F 26.1 °F 58% 30.30 in 10.0 mi South 18.4 mph - N/A   Clear
9:52 AM 43.0 °F 35.7 °F 26.1 °F 51% 30.30 in 10.0 mi South 15.0 mph - N/A   Clear
10:52 AM 46.0 °F 38.8 °F 28.9 °F 51% 30.28 in 10.0 mi South 18.4 mph 24.2 mph N/A   Clear
11:52 AM 44.6 °F 37.8 °F 28.4 °F 53% 30.24 in 10.0 mi South 15.0 mph - N/A   Clear
12:52 PM 44.6 °F 38.4 °F 28.9 °F 54% 30.23 in 10.0 mi South 12.7 mph - N/A   Clear
1:52 PM 48.9 °F - 30.9 °F 50% 30.21 in 10.0 mi South 17.3 mph 21.9 mph N/A   Clear
2:52 PM 48.9 °F - 32.0 °F 52% 30.20 in 10.0 mi South 15.0 mph - N/A   Clear
3:52 PM 48.0 °F - 32.0 °F 54% 30.18 in 10.0 mi South 12.7 mph 21.9 mph N/A   Clear
6:52 PM 45.0 °F 37.9 °F 28.0 °F 52% 30.17 in 10.0 mi South 16.1 mph 27.6 mph N/A   Clear
7:52 PM 43.0 °F 35.7 °F 28.0 °F 56% 30.17 in 10.0 mi South 15.0 mph - N/A   Clear
8:52 PM 41.0 °F 33.9 °F 28.0 °F 60% 30.18 in 10.0 mi South 12.7 mph - N/A   Clear
9:52 PM 39.9 °F 33.9 °F 28.0 °F 63% 30.19 in 10.0 mi South 9.2 mph - N/A   Clear
10:52 PM 37.0 °F 31.6 °F 28.0 °F 70% 30.20 in 10.0 mi South 6.9 mph - N/A   Clear
11:52 PM 37.4 °F 32.1 °F 28.4 °F 70% 30.19 in 10.0 mi South 6.9 mph - N/A   Clear